This is the latest recevied weather packets stored in our database for station/object NI4CE-10. If no packets are shown the sender has not sent any weather packets the latest 10 day(s).
| Time | Temp. | Humidity | Pressure | Rain* | Wind** | Luminosity | Snow |
|---|---|---|---|---|---|---|---|
| 1777550088 | 20.56° C | 100% | 1015.3 hPa | 0 mm | - | - | - |
| 1777549879 | 20.56° C | 100% | 1015.3 hPa | 0 mm | - | - | - |
| 1777549579 | 20.56° C | 100% | 1015.3 hPa | 0 mm | - | - | - |
| 1777549279 | 20.56° C | 100% | 1015.1 hPa | 0 mm | - | - | - |
| 1777549045 | 20° C | 100% | 1014.9 hPa | 0 mm | - | - | - |
| 1777548979 | 20° C | 100% | 1014.9 hPa | 0 mm | - | - | - |
| 1777548679 | 20° C | 100% | 1014.8 hPa | 0 mm | - | - | - |
| 1777548379 | 20° C | 100% | 1014.8 hPa | 0 mm | - | - | - |
| 1777548079 | 20° C | 100% | 1014.7 hPa | 0 mm | - | - | - |
| 1777547779 | 19.44° C | 100% | 1014.6 hPa | 0 mm | - | - | - |
| 1777547479 | 18.89° C | 100% | 1014.7 hPa | 0 mm | - | - | - |
| 1777547179 | 18.89° C | 100% | 1014.7 hPa | 0 mm | - | - | - |
| 1777546879 | 18.33° C | 100% | 1014.9 hPa | 0 mm | - | - | - |
| 1777546579 | 18.89° C | 100% | 1015 hPa | 0 mm | - | - | - |
| 1777546279 | 18.89° C | 100% | 1015 hPa | 0 mm | - | - | - |
| 1777545979 | 18.89° C | 100% | 1015 hPa | 0 mm | - | - | - |
| 1777545679 | 18.89° C | 100% | 1015.1 hPa | 0 mm | - | - | - |
| 1777545379 | 19.44° C | 100% | 1015.2 hPa | 0 mm | - | - | - |
| 1777545079 | 19.44° C | 100% | 1015.4 hPa | 0 mm | - | - | - |
| 1777544779 | 19.44° C | 100% | 1015.1 hPa | 0 mm | - | - | - |
| 1777544479 | 19.44° C | 100% | 1015.1 hPa | 0 mm | - | - | - |
| 1777544179 | 20° C | 100% | 1015 hPa | 0 mm | - | - | - |
| 1777543879 | 20° C | 100% | 1014.8 hPa | 0 mm | - | - | - |
| 1777543579 | 20° C | 100% | 1014.9 hPa | 0 mm | - | - | - |
| 1777543279 | 20° C | 100% | 1014.9 hPa | 0 mm | - | - | - |
* Rain latest hour (hover to see other rain measurements)
** Current wind speed in m/s (hover to see current wind gust speed)